| time (UTC) | temp F | wind direction | speed knots | gust knots | rain 1hr in | rain 24hr in | rain mn in | humidity % | barometer mb |
| 20260505041418 | 56 | 271 | 5.2 | 8.7 | 0.00 | 0.00 | 0.00 | 100 | |
| 20260505040418 | 56 | 264 | 3.5 | 7.8 | 0.00 | 0.00 | 0.00 | 100 | |
| 20260505035418 | 57 | 254 | 4.3 | 8.7 | 0.00 | 0.00 | 0.00 | 100 | |
| 20260505034418 | 57 | 236 | 4.3 | 7.0 | 0.00 | 0.00 | 0.00 | 100 | |
| 20260505033418 | 58 | 243 | 3.5 | 9.6 | 0.00 | 0.00 | 0.00 | 100 | |
| 20260505032419 | 58 | 230 | 4.3 | 7.8 | 0.00 | 0.00 | 0.00 | 100 | |
| 20260505031418 | 58 | 236 | 4.3 | 7.8 | 0.00 | 0.00 | 0.00 | 100 | |
| 20260505030418 | 58 | 229 | 4.3 | 8.7 | 0.00 | 0.00 | 0.00 | 100 | |
| 20260505025418 | 58 | 226 | 7.0 | 7.8 | 0.00 | 0.00 | 0.00 | 100 | |
| 20260505024418 | 59 | 240 | 3.5 | 13.0 | 0.00 | 0.00 | 0.00 | 100 | |
| 20260505023418 | 59 | 232 | 5.2 | 8.7 | 0.00 | 0.00 | 0.00 | 100 | |
| 20260505022418 | 59 | 253 | 7.8 | 7.8 | 0.00 | 0.00 | 0.00 | 100 | |
| 20260505021419 | 59 | 223 | 3.5 | 6.1 | 0.00 | 0.00 | 0.00 | 100 | |
| 20260505020419 | 60 | 227 | 3.5 | 8.7 | 0.00 | 0.00 | 0.00 | 100 | |
| 20260505015419 | 61 | 246 | 4.3 | 8.7 | 0.00 | 0.00 | 0.00 | 100 | |
| 20260505014419 | 60 | 243 | 7.0 | 13.9 | 0.00 | 0.00 | 0.00 | 100 | |
| 20260505013419 | 61 | 239 | 4.3 | 9.6 | 0.00 | 0.00 | 0.00 | 100 | |
| 20260505012419 | 61 | 232 | 5.2 | 8.7 | 0.00 | 0.00 | 0.00 | 100 | |
| 20260505011419 | 61 | 243 | 6.1 | 7.8 | 0.00 | 0.00 | 0.00 | 100 | |
| 20260505010419 | 62 | 230 | 3.5 | 9.6 | 0.00 | 0.00 | 0.00 | 100 | |
| 20260505005419 | 62 | 234 | 6.1 | 9.6 | 0.00 | 0.00 | 0.00 | 100 | |
| 20260505004419 | 63 | 205 | 6.1 | 9.6 | 0.00 | 0.00 | 0.00 | 100 | |
| 20260505003419 | 64 | 223 | 7.8 | 8.7 | 0.00 | 0.00 | 0.00 | 100 | |
| 20260505002419 | 64 | 264 | 5.2 | 5.2 | 0.00 | 0.00 | 0.00 | 100 | |
| 20260505001419 | 64 | 291 | 2.6 | 6.1 | 0.00 | 0.00 | 0.00 | 100 | |
| 20260505000420 | 64 | 262 | 2.6 | 4.3 | 0.00 | 0.00 | 0.00 | 100 | |
| 20260504235419 | 64 | 248 | 1.7 | 4.3 | 0.00 | 0.00 | 0.00 | 100 | |
| 20260504234419 | 65 | 255 | 4.3 | 6.1 | 0.00 | 0.00 | 0.00 | 100 | |
| 20260504233419 | 67 | 254 | 3.5 | 7.0 | 0.00 | 0.00 | 0.00 | 100 | |
| 20260504232419 | 67 | 277 | 2.6 | 6.1 | 0.00 | 0.00 | 0.00 | 100 | |
| 20260504231419 | 67 | 291 | 6.1 | 6.1 | 0.00 | 0.00 | 0.00 | 100 | |
| 20260504230419 | 68 | 264 | 2.6 | 9.6 | 0.00 | 0.00 | 0.00 | 100 | |
| 20260504225419 | 69 | 250 | 2.6 | 7.0 | 0.00 | 0.00 | 0.00 | 100 | |
| 20260504224419 | 70 | 278 | 3.5 | 11.3 | 0.00 | 0.00 | 0.00 | 100 | |
| 20260504223419 | 71 | 260 | 3.5 | 9.6 | 0.00 | 0.00 | 0.00 | 100 | |
| 20260504222419 | 70 | 265 | 4.3 | 11.3 | 0.00 | 0.00 | 0.00 | 100 | |
| 20260504221419 | 70 | 289 | 7.8 | 10.4 | 0.00 | 0.00 | 0.00 | 100 | |
| 20260504220419 | 69 | 261 | 5.2 | 9.6 | 0.00 | 0.00 | 0.00 | 100 | |
| 20260504215419 | 70 | 264 | 9.6 | 11.3 | 0.00 | 0.00 | 0.00 | 100 | |
| 20260504214419 | 72 | 282 | 4.3 | 7.8 | 0.00 | 0.00 | 0.00 | 100 | |
| 20260504213419 | 72 | 285 | 4.3 | 14.8 | 0.00 | 0.00 | 0.00 | 100 | |
| 20260504212419 | 73 | 248 | 6.1 | 8.7 | 0.00 | 0.00 | 0.00 | 100 | |
| 20260504211419 | 72 | 239 | 5.2 | 12.2 | 0.00 | 0.00 | 0.00 | 100 | |
| 20260504210419 | 70 | 262 | 5.2 | 14.8 | 0.00 | 0.00 | 0.00 | 100 | |
| 20260504205419 | 72 | 230 | 5.2 | 6.1 | 0.00 | 0.00 | 0.00 | 100 | |
| 20260504204419 | 70 | 279 | 6.1 | 10.4 | 0.00 | 0.00 | 0.00 | 100 | |
| 20260504203419 | 70 | 268 | 7.0 | 13.9 | 0.00 | 0.00 | 0.00 | 100 | |
| 20260504202419 | 71 | 261 | 5.2 | 13.0 | 0.00 | 0.00 | 0.00 | 100 | |
| 20260504201419 | 70 | 210 | 7.0 | 13.9 | 0.00 | 0.00 | 0.00 | 100 | |
| 20260504200419 | 72 | 258 | 3.5 | 11.3 | 0.00 | 0.00 | 0.00 | 100 | |
| 20260504195419 | 72 | 274 | 7.0 | 15.6 | 0.00 | 0.00 | 0.00 | 100 | |
| 20260504194419 | 72 | 268 | 6.1 | 14.8 | 0.00 | 0.00 | 0.00 | 100 | |
| 20260504193456 | 74 | 253 | 4.3 | 8.7 | 0.00 | 0.00 | 0.00 | 100 | |
| 20260504193419 | 74 | 253 | 4.3 | 8.7 | 0.00 | 0.00 | 0.00 | 100 | |
| 20260504192419 | 70 | 241 | 8.7 | 15.6 | 0.00 | 0.00 | 0.00 | 100 | |
| 20260504191419 | 71 | 277 | 7.0 | 17.4 | 0.00 | 0.00 | 0.00 | 100 | |
| 20260504190419 | 73 | 281 | 6.1 | 12.2 | 0.00 | 0.00 | 0.00 | 100 | |
| 20260504185419 | 72 | 230 | 6.1 | 20.9 | 0.00 | 0.00 | 0.00 | 100 | |
| 20260504184419 | 71 | 298 | 13.0 | 14.8 | 0.00 | 0.00 | 0.00 | 100 | |
| 20260504183419 | 71 | 277 | 13.9 | 14.8 | 0.00 | 0.00 | 0.00 | 100 | |
| 20260504182419 | 72 | 310 | 4.3 | 16.5 | 0.00 | 0.00 | 0.00 | 100 | |
| 20260504181419 | 71 | 305 | 7.0 | 20.9 | 0.00 | 0.00 | 0.00 | 100 | |
| 20260504180419 | 70 | 271 | 7.0 | 20.0 | 0.00 | 0.00 | 0.00 | 100 | |
| 20260504175419 | 70 | 277 | 6.1 | 21.7 | 0.00 | 0.00 | 0.00 | 100 | |
| 20260504174419 | 71 | 282 | 6.1 | 18.2 | 0.00 | 0.00 | 0.00 | 100 | |
| 20260504173419 | 70 | 260 | 5.2 | 13.0 | 0.00 | 0.00 | 0.00 | 100 | |
| 20260504172419 | 68 | 239 | 7.0 | 20.0 | 0.00 | 0.00 | 0.00 | 100 | |
| 20260504171419 | 69 | 255 | 7.8 | 15.6 | 0.00 | 0.00 | 0.00 | 100 | |
| 20260504170419 | 68 | 253 | 8.7 | 14.8 | 0.00 | 0.00 | 0.00 | 100 | |
| 20260504160419 | 68 | 251 | 7.8 | 19.1 | 0.00 | 0.00 | 0.00 | 100 | |
| 20260504150420 | 66 | 285 | 7.8 | 18.2 | 0.00 | 0.00 | 0.00 | 100 | |
| 20260504140420 | 63 | 251 | 12.2 | 15.6 | 0.00 | 0.00 | 0.00 | 100 | |
| 20260504130420 | 59 | 268 | 3.5 | 12.2 | 0.00 | 0.00 | 0.00 | 100 | |
| 20260504110420 | 47 | 250 | 4.3 | 5.2 | 0.00 | 0.00 | 0.00 | 100 | |
| 20260504100420 | 44 | 239 | 3.5 | 7.0 | 0.00 | 0.00 | 0.00 | 100 | |
| 20260504081421 | 43 | 255 | 3.5 | 4.3 | 0.00 | 0.00 | 0.00 | 100 | |
| 20260504080420 | 43 | 253 | 2.6 | 4.3 | 0.00 | 0.00 | 0.00 | 100 | |
| 20260504050421 | 39 | 248 | 2.6 | 3.5 | 0.00 | 0.00 | 0.00 | 100 | |
| 20260504045421 | 40 | 248 | 3.5 | 4.3 | 0.00 | 0.00 | 0.00 | 100 | |
| 20260504044421 | 42 | 265 | 2.6 | 4.3 | 0.00 | 0.00 | 0.00 | 100 | |
| 20260504043421 | 41 | 244 | 4.3 | 7.0 | 0.00 | 0.00 | 0.00 | 100 |